Regional Weather Roundup
Issued by NWS

Home | Current Version | Previous Version | Graphics & Text | Print | Product List | Glossary On
Versions: 1 2 3 4 5 6 7 8 9 10 11 12 13 14 15 16 17 18 19 20 21 22 23 24 25 26 27 28 29 30 31 32 33 34 35 36 37
000
ASUS45 KCYS 212210
RWRWY

WYOMING REGIONAL WEATHER ROUNDUP
NATIONAL WEATHER SERVICE CHEYENNE WY
400 PM MDT TUE OCT 21 2014

NOTE:  "FAIR" INDICATES FEW OR NO CLOUDS BELOW 12,000 FEET
WITH NO SIGNIFICANT WEATHER AND/OR OBSTRUCTIONS TO VISIBILITY.

WYZ001-212300-
YELLOWSTONE NATIONAL PARK

CITY           SKY/WX    TMP DP  RH WIND       PRES   REMARKS
LK YELLOWSTONE   N/A     37  26  64 VRB6      30.05R WCI  32
W YELLOWSTONE  NOT AVBL

$$
WYZ002>013-054>058-071-098>099-212300-
NORTHERN WYOMING

CITY           SKY/WX    TMP DP  RH WIND       PRES   REMARKS
JACKSON        MOSUNNY   46  28  49 SW16G24   30.03R
CODY           PTSUNNY  N/A N/A N/A W17G31    29.81R
GREYBULL       PTSUNNY   71  36  27 NW8       29.73R
WORLAND        LGT RAIN  71  37  28 SW14      29.76R
SHERIDAN       PTSUNNY   76  34  21 W20G30    29.66F
BUFFALO        CLOUDY    73  33  23 SW13      29.75S
GILLETTE       MOSUNNY   76  36  23 SW20G28   29.73S
HULETT         FAIR      77  36  22 SW17G26   29.74
NEWCASTLE      FAIR      77  34  20 MISG      29.78

$$
WYZ014>020-022>026-101>103-212300-
CENTRAL WYOMING

CITY           SKY/WX    TMP DP  RH WIND       PRES   REMARKS
BIG PINEY      MOSUNNY   53  33  46 W24G30    30.02R
PINEDALE       CLOUDY    48  36  61 NW17G24   30.02R
DUBOIS         FAIR      46  32  57 W28G40    29.93R
LANDER         PTSUNNY   67  35  30 NW10      29.84R
RIVERTON       CLOUDY    64  35  34 SW12      29.87R
CASPER         CLOUDY    68  36  30 SW21G30   29.84S
DOUGLAS        CLOUDY    73  36  25 SW16      29.86R

$$
WYZ021-027>030-104>119-212300-
SOUTHERN WYOMING

CITY           SKY/WX    TMP DP  RH WIND       PRES   REMARKS
EVANSTON       CLOUDY    54  32  43 W15G24    30.04R
KEMMERER       PTCLDY    50  32  50 W23G32    30.03R
FORT BRIDGER   CLOUDY    54  37  52 W21       30.04S
ROCK SPRINGS   TSTM      53  40  61 SW10      30.01R
RAWLINS        PTSUNNY   62  36  37 SW21G33   29.97F
SARATOGA       FAIR      59  37  44 S10       30.02F THUNDER
LARAMIE        CLOUDY    55  36  48 SW23G33   30.03S
CHEYENNE       PTSUNNY   65  36  34 W17       29.98R
TORRINGTON     PTSUNNY   73  43  33 SE15      29.83S
PINE BLUFFS    FAIR      75  32  20 S8        29.91S

$$



USA.gov is the U.S. government's official web portal to all federal, state and local government web resources and services.